Walla Walla, WA

5:02 PM PDT on May 22, 2018 (GMT -0700)
Walla Walla Regional

Weather History for KALW - May, 2013

Change the Weather History Date:

Sunday, May 19, 2013

  Actual Average Record
Temperature  
Mean Temperature 61 °F 60 °F  
Max Temperature 71 °F 71 °F 89 °F (2006)
Min Temperature 52 °F 49 °F 39 °F (1976)
Degree Days  
Heating Degree Days 4 6  
Month to date heating degree days 152  
Since 1 July heating degree days 4893  
Cooling Degree Days 0 1  
Month to date cooling degree days 16  
Year to date cooling degree days 18  
Growing Degree Days 11 (Base 50)    
Moisture  
Dew Point 42 °F    
Average Humidity 54    
Maximum Humidity 80    
Minimum Humidity 32    
Precipitation  
Precipitation 0.01 in 0.06 in 1.28 in (1991)
Month to date precipitation 1.28  
Year to date precipitation 9.79  
Snow  
Snow 0.00 in 0.00 in 0.00 in (2001)
Month to date snowfall 0.0  
Year to date snowfall 6.0  
Since 1 July snowfall 11.7  
Snow Depth -    
Sea Level Pressure  
Sea Level Pressure 30.25 in    
Wind  
Wind Speed 9 mph (South)    
Max Wind Speed 13 mph    
Max Gust Speed -    
Visibility 10 miles    
Events Rain    
T = Trace of Precipitation, MM = Missing Value Source: NWS Daily Summary

Daily Weather History Graph

Daily Weather History Graph

Search for Another Location

Airport or City:

Astronomy

May. 19, 2013 Rise Set
Actual Time 5:15 AM PDT 8:24 PM PDT
Civil Twilight 4:40 AM PDT 9:00 PM PDT
Nautical Twilight 3:53 AM PDT 9:46 PM PDT
Astronomical Twilight 2:57 AM PDT 10:43 PM PDT
Moon 2:14 PM PDT (5/19) 2:01 AM PDT (5/19)
Length of Visible Light 16h 19m
Length of Day
15h 08m
Waxing Gibbous, 66% of the Moon is Illuminated
May 19
Waxing Gibbous
May 24
Full
May 31
Last Quarter
Jun 8
New
Jun 16
First Quarter

Hourly Weather History & Observations

Time (PDT) Temp. Dew Point Humidity Pressure Visibility Wind Dir Wind Speed Gust Speed Precip Events Conditions
12:53 AM 53.1 °F 46.9 °F 80% 30.20 in 10.0 mi South 11.5 mph - 0.01 in Rain Light Rain
1:53 AM 53.1 °F 46.0 °F 77% 30.21 in 10.0 mi South 12.7 mph - 0.00 in   Overcast
2:53 AM 53.1 °F 45.0 °F 74% 30.22 in 10.0 mi South 10.4 mph - N/A   Overcast
3:53 AM 53.1 °F 45.0 °F 74% 30.23 in 10.0 mi South 11.5 mph - N/A   Overcast
5:53 AM 52.0 °F 43.0 °F 71% 30.27 in 10.0 mi South 9.2 mph - N/A   Overcast
6:53 AM 53.1 °F 43.0 °F 69% 30.29 in 10.0 mi South 8.1 mph - N/A   Overcast
7:53 AM 53.1 °F 43.0 °F 69% 30.29 in 10.0 mi South 9.2 mph - N/A   Overcast
8:53 AM 55.0 °F 43.0 °F 64% 30.30 in 10.0 mi South 9.2 mph - N/A   Overcast
9:53 AM 59.0 °F 43.0 °F 55% 30.29 in 10.0 mi SSW 9.2 mph - N/A   Overcast
10:53 AM 61.0 °F 43.0 °F 52% 30.29 in 10.0 mi SSW 6.9 mph - N/A   Overcast
1:53 PM 66.0 °F 39.9 °F 38% 30.26 in 10.0 mi Calm Calm - N/A   Scattered Clouds
2:53 PM 68.0 °F 39.9 °F 36% 30.25 in 10.0 mi SW 8.1 mph - N/A   Partly Cloudy
3:53 PM 68.0 °F 39.0 °F 35% 30.25 in 10.0 mi Variable 4.6 mph - N/A   Clear
4:53 PM 70.0 °F 39.0 °F 32% 30.24 in 10.0 mi WSW 6.9 mph - N/A   Clear
5:53 PM 70.0 °F 39.0 °F 32% 30.23 in 10.0 mi North 4.6 mph - N/A   Clear
6:53 PM 69.1 °F 37.9 °F 32% 30.22 in 10.0 mi Calm Calm - N/A   Clear
7:53 PM 66.9 °F 39.9 °F 37% 30.23 in 10.0 mi South 6.9 mph - N/A   Clear
8:53 PM 64.0 °F 43.0 °F 46% 30.24 in 10.0 mi ESE 5.8 mph - N/A   Overcast
9:53 PM 61.0 °F 42.1 °F 50% 30.24 in 10.0 mi ESE 8.1 mph - N/A   Overcast
10:53 PM 59.0 °F 42.1 °F 53% 30.24 in 10.0 mi ESE 8.1 mph - N/A   Scattered Clouds
11:53 PM 55.9 °F 43.0 °F 62% 30.26 in 10.0 mi Calm Calm - N/A   Overcast